White Plains, CT

3:24 AM EST on November 14, 2019 (GMT -0500)
Westchester County

Weather History for KHPN - September, 2019

Change the Weather History Date:

Wednesday, September 4, 2019

  Actual Average Record
Temperature  
Mean Temperature 73 °F -  
Max Temperature 86 °F 75 °F 90 °F (2008)
Min Temperature 62 °F 58 °F 50 °F (1976)
Cooling Degree Days 8    
Growing Degree Days 23 (Base 50)    
Moisture  
Dew Point 65 °F    
Average Humidity 79    
Maximum Humidity 97    
Minimum Humidity 55    
Precipitation  
Precipitation 0.00 in - - ()
Sea Level Pressure  
Sea Level Pressure 29.94 in    
Wind  
Wind Speed 3 mph ()    
Max Wind Speed 12 mph    
Max Gust Speed -    
Visibility 8.4 miles    
Events Rain    
Averages and records for this station are not official NWS values.
T = Trace of Precipitation, MM = Missing Value Source: Averaged Metar Reports

Daily Weather History Graph

Daily Weather History Graph

Search for Another Location

Airport or City:

Astronomy

Sep. 04, 2019 Rise Set
Actual Time 6:24 AM EDT 7:22 PM EDT
Civil Twilight 5:56 AM EDT 7:50 PM EDT
Nautical Twilight 5:22 AM EDT 8:24 PM EDT
Astronomical Twilight 4:47 AM EDT 8:59 PM EDT
Moon 12:25 PM EDT (9/4) 10:52 PM EDT (9/4)
Length of Visible Light 13h 54m
Length of Day
12h 58m
Waxing Crescent, 34% of the Moon is Illuminated
Sep 4
Waxing Crescent
Sep 5
First Quarter
Sep 14
Full
Sep 21
Last Quarter
Sep 28
New

Hourly Weather History & Observations

Time (EDT) Temp. Heat Index Dew Point Humidity Pressure Visibility Wind Dir Wind Speed Gust Speed Precip Events Conditions
12:56 AM 62.1 °F - 60.1 °F 93% 30.03 in 10.0 mi Calm Calm - N/A   Clear
1:56 AM 63.0 °F - 61.0 °F 93% 30.01 in 10.0 mi Calm Calm - N/A   Clear
2:50 AM 62.6 °F - 60.8 °F 94% 29.99 in 2.0 mi ESE 3.5 mph - N/A   Partly Cloudy
2:56 AM 62.1 °F - 61.0 °F 96% 29.97 in 2.0 mi Calm Calm - N/A   Clear
3:56 AM 62.1 °F - 61.0 °F 96% 29.97 in 1.0 mi Calm Calm - N/A   Partly Cloudy
4:30 AM 64.0 °F - 63.0 °F 96% 29.99 in 6.0 mi Calm Calm - N/A   Mostly Cloudy
4:56 AM 66.0 °F - 64.9 °F 96% 29.98 in 8.0 mi South 3.5 mph - N/A   Mostly Cloudy
5:56 AM 64.0 °F - 63.0 °F 96% 29.98 in 7.0 mi Calm Calm - N/A   Mostly Cloudy
6:56 AM 64.9 °F - 64.0 °F 97% 29.99 in 4.0 mi Calm Calm - N/A   Mostly Cloudy
7:56 AM 68.0 °F - 66.0 °F 93% 29.98 in 9.0 mi South 5.8 mph - N/A   Partly Cloudy
8:56 AM 70.0 °F - 66.0 °F 87% 29.97 in 10.0 mi South 8.1 mph - N/A   Mostly Cloudy
9:54 AM 73.4 °F - 66.2 °F 78% 29.97 in 7.0 mi WSW 8.1 mph - N/A   Mostly Cloudy
9:56 AM 73.0 °F - 66.0 °F 79% 29.95 in 7.0 mi Variable 5.8 mph - N/A   Mostly Cloudy
10:56 AM 75.0 °F - 66.9 °F 76% 29.93 in 10.0 mi South 8.1 mph - N/A   Mostly Cloudy
11:03 AM 75.9 °F - 68.0 °F 76% 29.94 in 10.0 mi SE 10.4 mph - N/A   Partly Cloudy
11:56 AM 77.0 °F - 66.9 °F 71% 29.91 in 10.0 mi SSE 6.9 mph - N/A   Mostly Cloudy
12:56 PM 80.1 °F 82.3 °F 66.9 °F 64% 29.89 in 10.0 mi SW 5.8 mph - N/A   Mostly Cloudy
1:08 PM 80.1 °F 82.7 °F 68.0 °F 67% 29.90 in 10.0 mi Variable 6.9 mph - N/A   Mostly Cloudy
1:56 PM 81.0 °F 84.1 °F 69.1 °F 67% 29.87 in 10.0 mi South 5.8 mph - N/A   Mostly Cloudy
2:56 PM 81.0 °F 84.4 °F 70.0 °F 69% 29.85 in 10.0 mi South 4.6 mph - N/A   Mostly Cloudy
3:56 PM 82.0 °F 86.3 °F 71.1 °F 69% 29.84 in 10.0 mi Variable 4.6 mph - 0.00 in Rain Light Rain
4:56 PM 84.9 °F 87.6 °F 66.9 °F 55% 29.83 in 10.0 mi WSW 6.9 mph - 0.00 in   Partly Cloudy
5:56 PM 84.0 °F 86.5 °F 66.9 °F 56% 29.85 in 10.0 mi WSW 3.5 mph - N/A   Scattered Clouds
6:56 PM 81.0 °F 83.3 °F 66.9 °F 62% 29.86 in 10.0 mi WSW 3.5 mph - N/A   Scattered Clouds
7:56 PM 77.0 °F - 64.0 °F 64% 29.90 in 10.0 mi NNW 6.9 mph - N/A   Scattered Clouds
8:56 PM 72.0 °F - 64.9 °F 78% 29.92 in 10.0 mi Calm Calm - N/A   Partly Cloudy
9:56 PM 73.0 °F - 63.0 °F 71% 29.94 in 10.0 mi Calm Calm - N/A   Partly Cloudy
10:56 PM 71.1 °F - 63.0 °F 75% 29.96 in 10.0 mi North 11.5 mph - N/A   Clear
11:56 PM 69.1 °F - 61.0 °F 75% 29.98 in 10.0 mi North 10.4 mph - N/A   Partly Cloudy